Location: Dittelbrunn
(50.0738°N, 10.2196°E)
Time: 22:15:58
(UTC+00:00)

ATLAS 3B R/B - Pass Details

Date: 18 September 2020
Orbit: 1016 x 1179 km, 63.8° (Epoch: 28 October)

Event Time Altitude Azimuth Distance (km) Brightness Sun altitude
Rises 19:30:44 0° 314° (NW) 3,805 7.0 -20.1°
Reaches altitude 10° 19:33:28 10° 321° (NW) 2,868 5.9 -20.5°
Maximum altitude 19:39:57 46° 33° (NNE) 1,424 3.3 -21.4°
Enters shadow 19:42:49 31° 84° (E) 1,814 3.5 -21.8°
